TimeCDT,TemperatureF,Dew PointF,Humidity,Sea Level PressureIn,VisibilityMPH,Wind Direction,Wind SpeedMPH,Gust SpeedMPH,PrecipitationIn,Events,Conditions,WindDirDegrees,DateUTC
12:53 AM,72.0,62.1,71,29.91,10.0,Variable,6.9,-,N/A,,Partly Cloudy,0,2012-10-25 05:53:00
1:53 AM,72.0,62.1,71,29.89,10.0,Variable,6.9,-,N/A,,Partly Cloudy,0,2012-10-25 06:53:00
2:53 AM,73.0,62.1,68,29.88,10.0,Variable,6.9,-,N/A,,Scattered Clouds,0,2012-10-25 07:53:00
3:16 AM,73.4,62.6,69,29.90,10.0,Variable,5.8,-,N/A,,Overcast,0,2012-10-25 08:16:00
3:40 AM,73.4,62.6,69,29.89,10.0,South,5.8,-,N/A,,Overcast,190,2012-10-25 08:40:00
3:53 AM,72.0,63.0,73,29.87,10.0,South,5.8,-,N/A,,Overcast,190,2012-10-25 08:53:00
4:53 AM,71.1,63.0,75,29.88,10.0,SW,5.8,-,N/A,,Overcast,220,2012-10-25 09:53:00
5:53 AM,71.1,64.0,78,29.91,10.0,SSW,5.8,-,N/A,,Overcast,200,2012-10-25 10:53:00
6:53 AM,70.0,64.0,81,29.93,10.0,Calm,Calm,-,N/A,,Overcast,0,2012-10-25 11:53:00
7:53 AM,68.0,63.0,84,29.93,10.0,SE,3.5,-,N/A,,Mostly Cloudy,130,2012-10-25 12:53:00
8:53 AM,70.0,64.0,81,29.94,10.0,SE,4.6,-,N/A,,Mostly Cloudy,140,2012-10-25 13:53:00
9:40 AM,69.8,64.4,83,29.96,10.0,SE,6.9,-,N/A,,Mostly Cloudy,140,2012-10-25 14:40:00
9:53 AM,71.1,64.0,78,29.94,10.0,South,8.1,-,N/A,,Mostly Cloudy,170,2012-10-25 14:53:00
10:53 AM,72.0,64.9,78,29.94,10.0,SSW,8.1,-,N/A,,Overcast,200,2012-10-25 15:53:00
11:53 AM,72.0,64.9,78,29.94,10.0,SSW,6.9,-,N/A,,Overcast,210,2012-10-25 16:53:00
12:53 PM,73.9,66.0,76,29.93,10.0,SSW,8.1,-,N/A,,Overcast,210,2012-10-25 17:53:00
1:53 PM,75.9,66.0,71,29.91,10.0,SSW,11.5,18.4,N/A,,Mostly Cloudy,210,2012-10-25 18:53:00
2:29 PM,77.0,66.2,69,29.91,10.0,SSW,6.9,-,N/A,,Scattered Clouds,210,2012-10-25 19:29:00
2:53 PM,79.0,66.0,64,29.88,10.0,SW,3.5,-,N/A,,Partly Cloudy,220,2012-10-25 19:53:00
3:53 PM,78.1,64.9,64,29.87,10.0,Variable,3.5,-,N/A,,Overcast,0,2012-10-25 20:53:00
4:53 PM,77.0,66.9,71,29.87,10.0,Variable,3.5,-,0.00,,Overcast,0,2012-10-25 21:53:00
5:53 PM,73.9,66.9,79,29.87,10.0,SE,4.6,-,N/A,,Overcast,140,2012-10-25 22:53:00
6:04 PM,73.4,66.2,78,29.90,10.0,Variable,4.6,-,N/A,Thunderstorm,Thunderstorm,0,2012-10-25 23:04:00
6:21 PM,71.6,68.0,88,29.90,4.0,North,4.6,-,0.01,Rain-Thunderstorm,Light Rain,360,2012-10-25 23:21:00
6:28 PM,71.6,68.0,88,29.91,10.0,North,3.5,-,0.01,Thunderstorm,Overcast,10,2012-10-25 23:28:00
6:34 PM,71.6,68.0,88,29.91,6.0,WNW,3.5,-,0.02,,Overcast,290,2012-10-25 23:34:00
6:53 PM,66.0,63.0,90,29.92,10.0,NW,8.1,16.1,0.04,Rain,Light Rain,320,2012-10-25 23:53:00
7:17 PM,62.6,59.0,88,29.94,4.0,NW,9.2,23.0,0.04,Rain,Rain,310,2012-10-26 00:17:00
7:53 PM,60.1,55.9,86,29.95,10.0,WNW,10.4,20.7,0.04,,Overcast,300,2012-10-26 00:53:00
8:53 PM,57.9,53.1,84,29.98,10.0,NNW,8.1,-,N/A,,Overcast,330,2012-10-26 01:53:00
9:43 PM,55.4,51.8,88,30.02,10.0,Variable,5.8,-,N/A,,Overcast,0,2012-10-26 02:43:00
9:53 PM,55.9,52.0,87,30.01,10.0,WNW,6.9,-,N/A,,Overcast,300,2012-10-26 02:53:00
10:53 PM,55.9,52.0,87,30.03,10.0,Variable,4.6,-,N/A,,Overcast,0,2012-10-26 03:53:00
11:29 PM,55.4,48.2,77,30.07,10.0,NNW,6.9,-,N/A,,Overcast,330,2012-10-26 04:29:00
11:53 PM,54.0,48.0,80,30.05,10.0,NNW,8.1,17.3,N/A,,Overcast,330,2012-10-26 04:53:00